User: anonymous   Login
Location: Cary
(35.7910°N, 78.7810°W)
Time: 21:23:27
(UTC-04:00)
Language:

Tiangong - Orbit

View from above orbital plane
View from above orbital plane
View from above satellite
View from above satellite

Ground track
Ground track

The orbit data is extracted from the following two-line orbital elements,

1 48274U 21035A   22229.69678242  .00005758  00000-0  68942-4 0  9995
2 48274  41.4720 204.3043 0003427 111.5242  70.2749 15.61595094 74389
Epoch (UTC): 17 August 2022 16:43:22
Eccentricity: 0.0003427
inclination: 41.4720°
perigee height: 381 km
apogee height: 385 km
right ascension of ascending node: 204.3043°
argument of perigee: 111.5242°
revolutions per day: 15.61595094
mean anomaly at epoch: 70.2749°
orbit number at epoch: 7438

The dashed part of the orbit path shows where the satellite is in the earth's shadow,  

DLR